| time (UTC) | temp C | wind direction | speed KPH | gust KPH | rain 1hr cm | rain 24hr cm | rain mn cm | humidity % | barometer mb |
| 20260904213040 | 26 | 246 | 0.0 | 0.0 | 0.00 | 0.94 | 0.00 | 46 | 1009.6 |
| 20260904211542 | 26 | 291 | 0.0 | 1.6 | 0.00 | 0.94 | 0.00 | 46 | 1009.7 |
| 20260904210040 | 26 | 213 | 0.0 | 0.0 | 0.00 | 0.94 | 0.00 | 46 | 1009.8 |
| 20260904204534 | 26 | 15 | 0.0 | 0.0 | 0.00 | 0.94 | 0.00 | 46 | 1010.0 |
| 20260904203038 | 27 | 350 | 0.0 | 0.0 | 0.00 | 0.94 | 0.00 | 47 | 1010.1 |
| 20260904201525 | 26 | 52 | 0.0 | 1.6 | 0.00 | 0.94 | 0.00 | 46 | 1010.2 |
| 20260904200021 | 26 | 213 | 0.0 | 14.5 | 0.00 | 0.94 | 0.00 | 42 | 1010.5 |
| 20260904194516 | 26 | 344 | 0.0 | 0.0 | 0.00 | 0.94 | 0.00 | 38 | 1010.5 |
| 20260904193012 | 26 | 360 | 0.0 | 3.2 | 0.00 | 0.94 | 0.00 | 37 | 1010.7 |
| 20260904191508 | 26 | 27 | 0.0 | 1.6 | 0.00 | 0.94 | 0.00 | 36 | 1010.7 |
| 20260904190004 | 27 | 29 | 0.0 | 3.2 | 0.00 | 0.94 | 0.00 | 38 | 1010.8 |
| 20260904184620 | 26 | 174 | 0.0 | 12.9 | 0.00 | 0.94 | 0.00 | 42 | 1010.7 |
| 20260904183056 | 27 | 312 | 0.0 | 1.6 | 0.00 | 0.94 | 0.00 | 34 | 1010.8 |
| 20260904181553 | 26 | 246 | 0.0 | 1.6 | 0.00 | 0.94 | 0.00 | 31 | 1011.1 |
| 20260904180050 | 26 | 213 | 0.0 | 1.6 | 0.00 | 0.94 | 0.00 | 30 | 1011.2 |
| 20260904174544 | 26 | 22 | 0.0 | 1.6 | 0.00 | 0.94 | 0.00 | 35 | 1011.6 |
| 20260904173055 | 26 | 241 | 0.0 | 1.6 | 0.00 | 0.94 | 0.00 | 26 | 1011.5 |
| 20260904171544 | 26 | 238 | 0.0 | 3.2 | 0.00 | 0.94 | 0.00 | 20 | 1011.6 |
| 20260904170038 | 26 | 222 | 0.0 | 0.0 | 0.00 | 0.94 | 0.00 | 17 | 1011.8 |
| 20260904164529 | 25 | 347 | 0.0 | 6.4 | 0.00 | 0.94 | 0.00 | 7 | 1011.6 |
| 20260904163024 | 25 | 217 | 0.0 | 0.0 | 0.00 | 0.94 | 0.00 | 1 | 1011.6 |
| 20260904161528 | 25 | 304 | 0.0 | 1.6 | 0.00 | 0.94 | 0.00 | 1 | 1011.9 |
| 20260904160021 | 25 | 350 | 0.0 | 0.0 | 0.00 | 0.94 | 0.00 | 1 | 1011.9 |
| 20260904154517 | 24 | 20 | 0.0 | 1.6 | 0.00 | 0.94 | 0.00 | 1 | 1011.9 |
| 20260904153015 | 24 | 17 | 0.0 | 8.0 | 0.00 | 0.94 | 0.00 | 1 | 1012.2 |
| 20260904151508 | 23 | 15 | 0.0 | 6.4 | 0.00 | 0.94 | 0.00 | 1 | 1012.0 |
| 20260904150004 | 23 | 23 | 0.0 | 1.6 | 0.00 | 0.94 | 0.00 | 1 | 1012.0 |
| 20260904144600 | 23 | 9 | 0.0 | 4.8 | 0.00 | 0.94 | 0.00 | 1 | 1012.0 |
| 20260904143055 | 23 | 227 | 0.0 | 4.8 | 0.00 | 0.94 | 0.00 | 1 | 1012.1 |
| 20260904141601 | 23 | 13 | 0.0 | 1.6 | 0.00 | 0.94 | 0.00 | 1 | 1012.2 |
| 20260904140106 | 22 | 5 | 0.0 | 1.6 | 0.00 | 0.94 | 0.00 | 1 | 1012.1 |
| 20260904134609 | 22 | 36 | 0.0 | 1.6 | 0.00 | 0.94 | 0.00 | 1 | 1012.1 |
| 20260904133048 | 22 | 21 | 0.0 | 0.0 | 0.00 | 0.94 | 0.00 | 1 | 1011.9 |
| 20260904131541 | 21 | 296 | 0.0 | 0.0 | 0.00 | 0.94 | 0.00 | 1 | 1011.8 |
| 20260904130039 | 20 | 302 | 0.0 | 0.0 | 0.00 | 0.94 | 0.00 | 1 | 1011.9 |
| 20260904124530 | 20 | 227 | 0.0 | 1.6 | 0.00 | 0.94 | 0.00 | 1 | 1012.1 |
| 20260904123025 | 19 | 180 | 0.0 | 3.2 | 0.00 | 0.94 | 0.00 | 1 | 1012.1 |
| 20260904121523 | 19 | 263 | 0.0 | 0.0 | 0.00 | 0.94 | 0.00 | 1 | 1011.9 |
| 20260904120021 | 19 | 206 | 0.0 | 0.0 | 0.00 | 0.94 | 0.00 | 1 | 1011.8 |
| 20260904114514 | 18 | 240 | 0.0 | 0.0 | 0.00 | 0.94 | 0.00 | 1 | 1011.8 |
| 20260904113011 | 18 | 240 | 0.0 | 0.0 | 0.00 | 0.94 | 0.00 | 1 | 1011.8 |
| 20260904111507 | 19 | 223 | 0.0 | 0.0 | 0.00 | 0.94 | 0.00 | 1 | 1011.5 |
| 20260904110003 | 19 | 244 | 0.0 | 0.0 | 0.00 | 0.94 | 0.00 | 1 | 1011.4 |
| 20260904104602 | 19 | 244 | 0.0 | 0.0 | 0.00 | 0.94 | 0.00 | 1 | 1011.5 |
| 20260904103058 | 19 | 244 | 0.0 | 0.0 | 0.00 | 0.94 | 0.00 | 1 | 1011.3 |
| 20260904101552 | 19 | 244 | 0.0 | 0.0 | 0.00 | 0.94 | 0.00 | 1 | 1011.3 |
| 20260904100059 | 19 | 244 | 0.0 | 0.0 | 0.00 | 0.94 | 0.00 | 1 | 1011.1 |
| 20260904094554 | 19 | 244 | 0.0 | 0.0 | 0.00 | 0.94 | 0.00 | 1 | 1011.1 |
| 20260904093039 | 19 | 244 | 0.0 | 0.0 | 0.00 | 0.99 | 0.00 | 1 | 1011.1 |
| 20260904091539 | 19 | 236 | 0.0 | 0.0 | 0.00 | 0.99 | 0.00 | 1 | 1011.0 |
| 20260904090044 | 19 | 236 | 0.0 | 0.0 | 0.00 | 0.99 | 0.00 | 1 | 1011.0 |
| 20260904084530 | 20 | 236 | 0.0 | 0.0 | 0.00 | 0.99 | 0.00 | 1 | 1010.8 |
| 20260904083051 | 20 | 236 | 0.0 | 0.0 | 0.00 | 0.99 | 0.00 | 1 | 1010.6 |
| 20260904081529 | 20 | 236 | 0.0 | 0.0 | 0.00 | 0.99 | 0.00 | 1 | 1010.5 |
| 20260904080017 | 20 | 236 | 0.0 | 0.0 | 0.00 | 0.99 | 0.00 | 1 | 1010.3 |
| 20260904074513 | 20 | 236 | 0.0 | 0.0 | 0.00 | 0.99 | 0.00 | 1 | 1010.1 |
| 20260904073008 | 20 | 236 | 0.0 | 0.0 | 0.00 | 0.99 | 0.00 | 1 | 1010.1 |
| 20260904071506 | 20 | 236 | 0.0 | 0.0 | 0.00 | 0.99 | 0.00 | 1 | 1010.0 |
| 20260904070002 | 21 | 236 | 0.0 | 0.0 | 0.00 | 0.99 | 0.00 | 1 | 1010.0 |
| 20260904064558 | 21 | 236 | 0.0 | 0.0 | 0.00 | 0.99 | 0.00 | 1 | 1009.9 |
| 20260904063101 | 21 | 236 | 0.0 | 0.0 | 0.00 | 0.99 | 0.00 | 1 | 1010.0 |
| 20260904061554 | 21 | 236 | 0.0 | 0.0 | 0.00 | 0.99 | 0.00 | 1 | 1010.0 |
| 20260904060050 | 21 | 236 | 0.0 | 0.0 | 0.00 | 0.99 | 0.00 | 1 | 1010.1 |
| 20260904054549 | 21 | 236 | 0.0 | 0.0 | 0.00 | 0.99 | 0.00 | 1 | 1010.2 |
| 20260904053055 | 21 | 236 | 0.0 | 0.0 | 0.13 | 1.04 | 0.00 | 1 | 1010.4 |
| 20260904051540 | 21 | 236 | 0.0 | 0.0 | 0.23 | 1.04 | 0.00 | 1 | 1010.5 |
| 20260904050036 | 21 | 236 | 0.0 | 0.0 | 0.81 | 1.04 | 0.00 | 1 | 1010.4 |
| 20260904044526 | 21 | 15 | 0.0 | 0.0 | 0.94 | 1.04 | 0.00 | 1 | 1010.8 |
| 20260904043032 | 22 | 13 | 0.0 | 0.0 | 0.81 | 1.40 | 0.91 | 1 | 1010.9 |
| 20260904041524 | 22 | 65 | 0.0 | 1.6 | 0.76 | 1.35 | 0.86 | 1 | 1010.5 |
| 20260904040019 | 22 | 196 | 0.0 | 0.0 | 0.18 | 0.76 | 0.28 | 1 | 1010.8 |
| 20260904034516 | 22 | 227 | 0.0 | 0.0 | 0.03 | 0.61 | 0.13 | 1 | 1010.4 |
| 20260904033011 | 22 | 227 | 0.0 | 0.0 | 0.00 | 0.91 | 0.10 | 1 | 1010.5 |
| 20260904031503 | 22 | 227 | 0.0 | 0.0 | 0.00 | 0.91 | 0.10 | 1 | 1010.5 |
| 20260904030059 | 22 | 227 | 0.0 | 0.0 | 0.00 | 0.91 | 0.10 | 1 | 1010.5 |
| 20260904024556 | 22 | 227 | 0.0 | 0.0 | 0.00 | 0.91 | 0.10 | 1 | 1010.5 |
| 20260904023051 | 22 | 227 | 0.0 | 0.0 | 0.00 | 2.36 | 0.10 | 1 | 1010.5 |
| 20260904021550 | 22 | 227 | 0.0 | 0.0 | 0.00 | 2.36 | 0.10 | 1 | 1010.7 |
| 20260904020048 | 22 | 227 | 0.0 | 0.0 | 0.00 | 2.36 | 0.10 | 1 | 1011.0 |
| 20260904014541 | 22 | 227 | 0.0 | 0.0 | 0.00 | 2.36 | 0.10 | 1 | 1011.0 |
| 20260904013044 | 22 | 227 | 0.0 | 0.0 | 0.00 | 2.44 | 0.10 | 1 | 1011.1 |
| 20260904011544 | 22 | 227 | 0.0 | 0.0 | 0.00 | 2.44 | 0.10 | 1 | 1011.0 |
| 20260904010034 | 22 | 225 | 0.0 | 0.0 | 0.00 | 2.44 | 0.10 | 1 | 1011.1 |
| 20260904004534 | 23 | 225 | 0.0 | 0.0 | 0.00 | 2.44 | 0.10 | 1 | 1011.0 |
| 20260904003029 | 23 | 225 | 0.0 | 0.0 | 0.00 | 2.44 | 0.10 | 1 | 1010.7 |
| 20260904001530 | 23 | 225 | 0.0 | 0.0 | 0.00 | 2.44 | 0.10 | 1 | 1010.7 |
| 20260904000024 | 23 | 225 | 0.0 | 0.0 | 0.00 | 2.44 | 0.10 | 1 | 1010.6 |
| 20260903234519 | 23 | 225 | 0.0 | 0.0 | 0.00 | 2.44 | 0.10 | 1 | 1010.7 |
| 20260903233015 | 24 | 225 | 0.0 | 0.0 | 0.00 | 2.44 | 0.10 | 1 | 1010.6 |
| 20260903231515 | 25 | 225 | 0.0 | 0.0 | 0.00 | 2.44 | 0.10 | 1 | 1010.6 |
| 20260903230015 | 25 | 225 | 0.0 | 0.0 | 0.00 | 2.44 | 0.10 | 1 | 1010.6 |
| 20260903224516 | 26 | 225 | 0.0 | 0.0 | 0.00 | 2.44 | 0.10 | 1 | 1010.4 |
| 20260903223002 | 26 | 225 | 0.0 | 0.0 | 0.00 | 2.44 | 0.10 | 1 | 1010.3 |
| 20260903220056 | 28 | 225 | 0.0 | 0.0 | 0.00 | 2.44 | 0.10 | 1 | 1010.0 |
| 20260903214606 | 28 | 225 | 0.0 | 0.0 | 0.00 | 2.44 | 0.10 | 1 | 1010.0 |